| time (UTC) | temp F | wind direction | speed knots | gust knots | rain 1hr in | rain 24hr in | rain mn in | humidity % | barometer mb |
| 20260505235517 | 63 | 0.0 | 0.0 | 0.00 | 0.00 | 0.00 | 66 | 1014.0 | |
| 20260505234516 | 62 | 0.0 | 0.9 | 0.00 | 0.00 | 0.00 | 66 | 1014.0 | |
| 20260505233516 | 62 | 0.0 | 2.6 | 0.00 | 0.00 | 0.00 | 65 | 1014.1 | |
| 20260505232517 | 62 | 0.0 | 0.9 | 0.00 | 0.00 | 0.00 | 65 | 1014.2 | |
| 20260505231537 | 63 | 0.0 | 0.9 | 0.00 | 0.00 | 0.00 | 65 | 1014.3 | |
| 20260505230537 | 63 | 0.0 | 7.0 | 0.00 | 0.00 | 0.00 | 65 | 1014.2 | |
| 20260505225516 | 63 | 0.0 | 2.6 | 0.00 | 0.00 | 0.00 | 65 | 1014.2 | |
| 20260505224536 | 62 | 0.0 | 1.7 | 0.00 | 0.00 | 0.00 | 66 | 1014.3 | |
| 20260505223516 | 62 | 0.0 | 0.0 | 0.00 | 0.00 | 0.00 | 66 | 1014.3 | |
| 20260505222536 | 62 | 0.0 | 0.9 | 0.00 | 0.00 | 0.00 | 67 | 1014.4 | |
| 20260505221516 | 62 | 135 | 0.9 | 3.5 | 0.00 | 0.00 | 0.00 | 67 | 1014.4 |
| 20260505220516 | 62 | 0.0 | 2.6 | 0.00 | 0.00 | 0.00 | 68 | 1014.5 | |
| 20260505215516 | 62 | 0.0 | 0.9 | 0.00 | 0.00 | 0.00 | 69 | 1014.6 | |
| 20260505214537 | 62 | 0.0 | 0.9 | 0.00 | 0.00 | 0.00 | 70 | 1014.6 | |
| 20260505213516 | 61 | 0.0 | 0.9 | 0.00 | 0.00 | 0.00 | 72 | 1014.7 | |
| 20260505212516 | 60 | 0.0 | 0.0 | 0.00 | 0.00 | 0.00 | 73 | 1014.8 | |
| 20260505211516 | 60 | 0.0 | 0.9 | 0.00 | 0.00 | 0.00 | 73 | 1014.9 | |
| 20260505210516 | 60 | 0.0 | 0.0 | 0.00 | 0.00 | 0.00 | 73 | 1014.7 | |
| 20260505205516 | 60 | 0.0 | 0.0 | 0.00 | 0.00 | 0.00 | 73 | 1014.8 | |
| 20260505204557 | 60 | 0.0 | 0.0 | 0.00 | 0.00 | 0.00 | 73 | 1014.8 | |
| 20260505203516 | 60 | 0.0 | 0.0 | 0.00 | 0.00 | 0.00 | 74 | 1014.7 | |
| 20260505202516 | 60 | 0.0 | 0.0 | 0.00 | 0.00 | 0.00 | 77 | 1014.8 | |
| 20260505201516 | 59 | 0.0 | 0.0 | 0.00 | 0.00 | 0.00 | 79 | 1014.9 | |
| 20260505200536 | 58 | 0.0 | 0.0 | 0.00 | 0.00 | 0.00 | 79 | 1015.0 | |
| 20260505195556 | 58 | 0.0 | 0.0 | 0.00 | 0.00 | 0.00 | 78 | 1015.2 | |
| 20260505194516 | 58 | 0.0 | 0.0 | 0.00 | 0.00 | 0.00 | 78 | 1015.2 | |
| 20260505193516 | 58 | 0.0 | 0.0 | 0.00 | 0.00 | 0.00 | 78 | 1015.2 | |
| 20260505192516 | 58 | 0.0 | 0.9 | 0.00 | 0.00 | 0.00 | 79 | 1015.2 | |
| 20260505191516 | 58 | 0.0 | 0.0 | 0.00 | 0.00 | 0.00 | 81 | 1015.2 | |
| 20260505190516 | 58 | 0.0 | 1.7 | 0.00 | 0.00 | 0.00 | 82 | 1015.1 | |
| 20260505185516 | 57 | 0.0 | 2.6 | 0.00 | 0.00 | 0.00 | 83 | 1015.1 | |
| 20260505184516 | 57 | 0.0 | 0.9 | 0.00 | 0.00 | 0.00 | 84 | 1015.0 | |
| 20260505183556 | 57 | 0.0 | 0.0 | 0.00 | 0.00 | 0.00 | 85 | 1015.1 | |
| 20260505182516 | 56 | 0.0 | 0.0 | 0.00 | 0.00 | 0.00 | 85 | 1015.2 | |
| 20260505181516 | 56 | 0.0 | 0.0 | 0.00 | 0.00 | 0.00 | 83 | 1015.2 | |
| 20260505180516 | 56 | 0.0 | 0.9 | 0.00 | 0.00 | 0.00 | 82 | 1015.1 | |
| 20260505175516 | 56 | 0.0 | 1.7 | 0.00 | 0.00 | 0.00 | 80 | 1015.1 | |
| 20260505174516 | 57 | 225 | 0.9 | 3.5 | 0.00 | 0.00 | 0.00 | 79 | 1014.9 |
| 20260505173516 | 57 | 0.0 | 0.0 | 0.00 | 0.00 | 0.00 | 78 | 1014.7 | |
| 20260505172516 | 56 | 0.0 | 0.0 | 0.00 | 0.00 | 0.00 | 77 | 1014.6 | |
| 20260505171516 | 56 | 0.0 | 0.0 | 0.00 | 0.00 | 0.00 | 77 | 1014.6 | |
| 20260505170516 | 56 | 0.0 | 0.0 | 0.00 | 0.00 | 0.00 | 77 | 1014.5 | |
| 20260505165536 | 56 | 0.0 | 0.0 | 0.00 | 0.00 | 0.00 | 77 | 1014.5 | |
| 20260505164516 | 56 | 0.0 | 0.0 | 0.00 | 0.00 | 0.00 | 78 | 1014.4 | |
| 20260505163535 | 56 | 0.0 | 0.0 | 0.00 | 0.00 | 0.00 | 78 | 1014.4 | |
| 20260505162536 | 56 | 0.0 | 0.0 | 0.00 | 0.00 | 0.00 | 78 | 1014.3 | |
| 20260505161515 | 56 | 0.0 | 0.0 | 0.00 | 0.00 | 0.00 | 79 | 1014.2 | |
| 20260505160516 | 56 | 0.0 | 0.0 | 0.00 | 0.00 | 0.00 | 79 | 1014.2 | |
| 20260505152518 | 55 | 0.0 | 0.0 | 0.00 | 0.00 | 0.00 | 82 | 1014.1 | |
| 20260505151517 | 55 | 0.0 | 0.0 | 0.00 | 0.00 | 0.00 | 82 | 1014.0 | |
| 20260505150517 | 55 | 0.0 | 0.0 | 0.00 | 0.00 | 0.00 | 82 | 1013.9 | |
| 20260505140537 | 54 | 0.0 | 0.0 | 0.00 | 0.00 | 0.00 | 82 | 1013.6 | |
| 20260505124537 | 54 | 0.0 | 0.0 | 0.00 | 0.00 | 0.00 | 80 | 1013.4 | |
| 20260505123518 | 54 | 0.0 | 0.0 | 0.00 | 0.00 | 0.00 | 80 | 1013.3 | |
| 20260505122518 | 54 | 0.0 | 0.0 | 0.00 | 0.00 | 0.00 | 80 | 1013.5 | |
| 20260505121517 | 54 | 0.0 | 0.0 | 0.00 | 0.00 | 0.00 | 80 | 1013.5 | |
| 20260505120518 | 54 | 0.0 | 0.0 | 0.00 | 0.00 | 0.00 | 80 | 1013.5 | |
| 20260505115517 | 54 | 0.0 | 0.0 | 0.00 | 0.00 | 0.00 | 80 | 1013.6 | |
| 20260505114517 | 54 | 0.0 | 0.0 | 0.00 | 0.00 | 0.00 | 79 | 1013.6 | |
| 20260505113558 | 54 | 0.0 | 0.0 | 0.00 | 0.00 | 0.00 | 79 | 1013.5 | |
| 20260505112517 | 54 | 0.0 | 0.0 | 0.00 | 0.00 | 0.00 | 79 | 1013.7 | |
| 20260505111517 | 54 | 0.0 | 0.0 | 0.00 | 0.00 | 0.00 | 79 | 1013.5 | |
| 20260505110517 | 54 | 0.0 | 0.0 | 0.00 | 0.00 | 0.00 | 79 | 1013.6 | |
| 20260505101538 | 54 | 0.0 | 0.0 | 0.00 | 0.00 | 0.00 | 78 | 1013.6 | |
| 20260505100517 | 54 | 0.0 | 0.0 | 0.00 | 0.00 | 0.00 | 78 | 1013.6 | |
| 20260505095517 | 54 | 0.0 | 0.9 | 0.00 | 0.00 | 0.00 | 78 | 1013.6 | |
| 20260505094517 | 54 | 0.0 | 0.9 | 0.00 | 0.00 | 0.00 | 78 | 1013.6 | |
| 20260505093517 | 55 | 0.0 | 0.9 | 0.00 | 0.00 | 0.00 | 77 | 1013.6 | |
| 20260505092517 | 55 | 0.0 | 0.9 | 0.00 | 0.00 | 0.00 | 77 | 1013.8 | |
| 20260505091517 | 55 | 0.0 | 0.9 | 0.00 | 0.00 | 0.00 | 77 | 1013.8 | |
| 20260505090517 | 55 | 0.0 | 0.0 | 0.00 | 0.00 | 0.00 | 77 | 1013.8 | |
| 20260505085517 | 55 | 0.0 | 0.0 | 0.00 | 0.00 | 0.00 | 77 | 1013.9 | |
| 20260505084517 | 55 | 0.0 | 5.2 | 0.00 | 0.00 | 0.00 | 77 | 1013.9 | |
| 20260505083517 | 55 | 0.0 | 0.9 | 0.00 | 0.00 | 0.00 | 77 | 1014.0 | |
| 20260505082537 | 55 | 0.0 | 1.7 | 0.00 | 0.00 | 0.00 | 76 | 1014.3 | |
| 20260505081517 | 55 | 0.0 | 1.7 | 0.00 | 0.00 | 0.00 | 76 | 1014.3 | |
| 20260505080517 | 55 | 113 | 0.9 | 5.2 | 0.00 | 0.00 | 0.00 | 74 | 1014.3 |
| 20260505075517 | 55 | 0.0 | 1.7 | 0.00 | 0.00 | 0.00 | 74 | 1014.4 | |
| 20260505074517 | 55 | 90 | 0.9 | 4.3 | 0.00 | 0.00 | 0.00 | 74 | 1014.4 |
| 20260505073517 | 56 | 0.0 | 3.5 | 0.00 | 0.00 | 0.00 | 75 | 1014.2 | |
| 20260505072517 | 56 | 0.0 | 2.6 | 0.00 | 0.00 | 0.00 | 75 | 1014.3 | |
| 20260505071537 | 56 | 0.0 | 4.3 | 0.00 | 0.00 | 0.00 | 75 | 1014.1 | |
| 20260505070517 | 56 | 203 | 0.9 | 4.3 | 0.00 | 0.00 | 0.00 | 75 | 1014.1 |
| 20260505065517 | 56 | 0.0 | 0.9 | 0.00 | 0.00 | 0.00 | 76 | 1013.9 | |
| 20260505064517 | 56 | 0.0 | 0.9 | 0.00 | 0.00 | 0.00 | 76 | 1013.9 | |
| 20260505063517 | 56 | 0.0 | 2.6 | 0.00 | 0.00 | 0.00 | 76 | 1013.9 | |
| 20260505062517 | 56 | 0.0 | 4.3 | 0.00 | 0.00 | 0.00 | 75 | 1013.9 | |
| 20260505061517 | 56 | 0.0 | 1.7 | 0.00 | 0.00 | 0.00 | 75 | 1013.8 | |
| 20260505060517 | 57 | 0.0 | 4.3 | 0.00 | 0.00 | 0.00 | 75 | 1013.8 | |
| 20260505055517 | 57 | 0.0 | 2.6 | 0.00 | 0.00 | 0.00 | 74 | 1013.7 | |
| 20260505054517 | 57 | 0.0 | 1.7 | 0.00 | 0.00 | 0.00 | 74 | 1013.8 | |
| 20260505053517 | 57 | 113 | 1.7 | 7.0 | 0.00 | 0.00 | 0.00 | 75 | 1014.0 |
| 20260505052537 | 57 | 158 | 0.9 | 5.2 | 0.00 | 0.00 | 0.00 | 75 | 1014.0 |
| 20260505051557 | 57 | 0.0 | 4.3 | 0.00 | 0.00 | 0.00 | 76 | 1014.2 | |
| 20260505050517 | 57 | 23 | 0.9 | 5.2 | 0.00 | 0.00 | 0.00 | 76 | 1014.2 |
| 20260505041516 | 58 | 203 | 0.9 | 4.3 | 0.00 | 0.00 | 0.00 | 74 | 1013.6 |
| 20260505040538 | 58 | 0.0 | 2.6 | 0.00 | 0.00 | 0.00 | 73 | 1013.6 | |
| 20260505035516 | 59 | 135 | 0.9 | 6.1 | 0.00 | 0.00 | 0.00 | 71 | 1013.5 |
| 20260505034517 | 59 | 0.0 | 5.2 | 0.00 | 0.00 | 0.00 | 68 | 1013.4 | |
| 20260505033517 | 59 | 203 | 1.7 | 6.1 | 0.00 | 0.00 | 0.00 | 67 | 1013.2 |
| 20260505032516 | 59 | 0.0 | 2.6 | 0.00 | 0.00 | 0.00 | 69 | 1013.0 | |
| 20260505031517 | 59 | 158 | 0.9 | 5.2 | 0.00 | 0.00 | 0.00 | 68 | 1012.9 |
| 20260505030537 | 60 | 0.0 | 5.2 | 0.00 | 0.00 | 0.00 | 66 | 1012.9 | |
| 20260505025516 | 60 | 0.0 | 1.7 | 0.00 | 0.00 | 0.00 | 64 | 1012.9 | |
| 20260505024516 | 60 | 0.0 | 1.7 | 0.00 | 0.00 | 0.00 | 62 | 1013.0 | |
| 20260505023517 | 60 | 90 | 0.9 | 5.2 | 0.00 | 0.00 | 0.00 | 62 | 1012.9 |
| 20260505022516 | 60 | 158 | 0.9 | 5.2 | 0.00 | 0.00 | 0.00 | 64 | 1012.9 |
| 20260505021516 | 60 | 135 | 0.9 | 6.1 | 0.00 | 0.00 | 0.00 | 62 | 1012.8 |
| 20260505020516 | 61 | 225 | 0.9 | 7.0 | 0.00 | 0.00 | 0.00 | 61 | 1012.9 |
| 20260505015517 | 61 | 135 | 0.9 | 7.0 | 0.00 | 0.00 | 0.00 | 60 | 1012.7 |
| 20260505014517 | 61 | 158 | 0.9 | 7.8 | 0.00 | 0.00 | 0.00 | 59 | 1012.7 |
| 20260505013517 | 62 | 135 | 0.9 | 7.8 | 0.00 | 0.00 | 0.00 | 59 | 1012.8 |
| 20260505012517 | 62 | 113 | 1.7 | 11.3 | 0.00 | 0.00 | 0.00 | 58 | 1012.9 |
| 20260505011517 | 63 | 135 | 0.9 | 12.2 | 0.00 | 0.00 | 0.00 | 58 | 1013.1 |
| 20260505010516 | 63 | 180 | 1.7 | 7.8 | 0.00 | 0.00 | 0.00 | 58 | 1013.1 |
| 20260505005516 | 63 | 135 | 0.9 | 5.2 | 0.00 | 0.00 | 0.00 | 59 | 1013.0 |
| 20260505004517 | 62 | 113 | 0.9 | 6.1 | 0.00 | 0.00 | 0.00 | 59 | 1013.2 |
| 20260505003517 | 62 | 158 | 1.7 | 7.8 | 0.00 | 0.00 | 0.00 | 60 | 1013.3 |
| 20260505002516 | 62 | 203 | 0.9 | 9.6 | 0.00 | 0.00 | 0.00 | 60 | 1013.3 |
| 20260505001516 | 62 | 203 | 1.7 | 7.8 | 0.00 | 0.00 | 0.00 | 60 | 1013.2 |
| 20260505000516 | 62 | 158 | 1.7 | 7.8 | 0.00 | 0.00 | 0.00 | 60 | 1013.1 |